SPACEBEE-160 (55097 NORAD) Tracking and Keplerian Element Data

This shows tracking and keplerian element data for the satellite.

Feedback or suggestion? Click here.




ElementValue
Catalog55097
NameSPACEBEE-160
Epoch Orbit1886
Epoch Day127.09436768
Epoch Year2023
RAAN187.5986
Inclination97.4799
Eccentricity0.0017106
Argument of Perigee142.9169
Mean Anonmoly217.325
Mean Motion15.18616458
Decay Rate0.00023426
L11 55097U 23001CS 23127.09436768 .00023426 00000+0 11283-2 0 9993
L22 55097 97.4799 187.5986 0017106 142.9169 217.3250 15.18616458 18862



Live tracking and technical data element details for SPACEBEE-160 (NORAD 55097). SPACEBEE-160 can be tracked NOW for your location showing map with azimuth and elevation plus other details from your city location.







IsCatalogInMostPopularTable: catalog: 55097, numindb: -1

Insert: records affected: 1


GetName: 55097 SPACEBEE-160

Hit Count: inserted at: Mon, 05 Jun 2023 21:22:22 GMT